SCP
0 0 0 0 0 0 0 0 0 0 0 0 0 0 0 0 0 0 0 0 0 0 0 0 0 0 0 0 0 0 0 0 0 0 0 0 0 0 0 0 0 0 0 0 0 0 0 0 0 0 0 0 0 0
0 0 0 0 0 0 0 0 0 0 0 0 0 0 0 0 0 0 0 0 0 0 0 0 0 0 0 0 0 0 0 0 0 0 0 0 0 0 0 0 0 0 0 0 0 0 0 0 0 0 0 0 0 0
0 0 0 0 0 0 0 0 0 0 0 0 0 0 0 0 0 0 0 0 0 0 0 0 0 0 0 0 0 0 0 0 0 0 0 0 0 0 0 0 0 0 0 0 0 0 0 0 0 0 0 0 0 0
0 0 0 0 0 0 0 0 0 0 0 0 0 0 0 0 0 0 0 0 0 0 0 0 0 0 0 0 0 0 0 0 0 0 0 0 0 0 0 0 0 0 0 0 0 0 0 0 0 0 0 0 0 0
0 0 0 0 0 0 0 0 0 0 0 0 0 0 0 0 0 0 0 0 0 0 0 0 0 0 0 0 0 0 0 0 0 0 0 0 0 0 0 0 0 0 0 0 0 0 0 0 0 0 0 0 0 -0
0 0 0 0 0 0 0 0 0 0 0 0 0 0 0 0 0 0 0 0 0 0 0 0 0 0 0 0 0 0 0 0 0 0 0 0 0 0 0 0 0 0 0 0 0 0 0 0 0 0 0 0 -0 -0
0 0 0 0 0 0 0 0 0 0 0 0 0 0 0 0 0 0 0 0 -0 -0 0 0 0 0 0 0 0 0 0 0 0 0 0 0 0 0 0 0 0 0 0 0 0 0 0 0 0 0 0 -0 -0 -0
0 0 0 0 0 0 0 0 0 0 0 0 0 0 0 0 0 0 0 0 0 0 0 0 0 0 0 0 0 0 0 0 0 0 0 0 0 0 0 0 0 0 -0 0 0 0 0 0 0 0 -0 -0 -0 -0
0 0 0 0 0 0 0 0 0 0 0 0 0 0 0 0 0 0 0 0 0 0 0 0 0 0 0 0 0 0 0 0 0 0 0 0 0 0 0 0 0 0 0 0 0 0 0 0 0 -0 -0 -0 -0 -0
0 0 0 0 0 0 0 0 0 0 0 0 0 0 0 0 0 0 0 0 0 0 0 0 0 0 0 0 0 0 0 0 0 0 0 0 0 -0 -0 -0 0 0 0 0 0 0 0 -0 -0 -0 -0 -0 -0 -0
0 0 0 0 0 0 0 0 0 0 0 0 0 0 0 0 0 0 0 0 0 0 0 0 -0 0 0 0 0 0 0 0 0 0 0 0 0 0 0 0 0 0 0 0 0 0 -0 -0 -0 -0 -0 -0 -0 -0
0 0 0 0 0 0 0 0 0 0 0 0 0 0 0 0 0 0 -0 -0 0 0 0 -0 -0 0 0 0 0 0 0 0 0 0 0 -0 -0 0 0 0 0 0 0 0 -0 0 0 -0 -0 -0 -0 -0 -0 -0
-0 0 0 0 0 0 0 0 0 0 0 0 0 0 0 0 -0 -0 0 0 0 0 0 0 0 0 0 0 0 0 0 0 0 0 0 -0 0 -0 0 0 0 0 0 0 -0 -0 -0 -0 0 -0 0 0 -0 -0
-0 0 0 0 0 0 0 0 0 0 0 0 0 0 0 0 0 -0 0 0 0 0 -0 0 0 0 0 0 0 0 -0 0 -0 0 0 0 -0 0 0 0 0 -0 0 -0 -0 0 0 0 0 -0 -0 -0 -0 -0
-0 0 0 0 -0 0 0 0 -0 0 0 0 0 0 0 0 0 -0 -0 0 -0 0 0 0 0 0 0 0 0 0 -0 -0 0 -0 -0 -0 0 0 0 0 0 -0 -0 0 0 0 0 0 -0 0 -0 -0 -0 -0
-0 -0 -0 -0 0 0 0 0 0 0 0 0 0 0 0 0 0 0 0 0 0 0 0 0 0 0 0 0 0 -0 0 0 -0 -0 0 0 0 0 0 0 -0 -0 -0 -0 -0 -0 -0 -0 -0 -0 -0 -0 -0 -0
-0 0 0 0 0 0 0 0 0 0 0 0 0 0 0 0 0 -0 0 0 0 0 0 0 0 -0 -0 -0 0 0 0 -0 0 0 0 0 0 0 -0 -0 -0 0 -0 -0 0 -0 -0 -0 -0 -0 -0 -0 -0 -0
-0 0 0 -0 0 0 0 0 0 0 -0 -0 -0 0 0 0 0 0 -0 0 0 0 0 0 0 -0 -0 0 0 0 -0 0 -0 0 0 0 -0 -0 -0 -0 0 -0 -0 -0 -0 0 0 0 -0 -0 -0 -0 -0 -0
0 0 0 0 0 0 0 0 0 0 -0 -0 0 0 0 0 0 0 0 0 0 -0 0 0 -0 -0 -0 -0 -0 -0 0 0 -0 0 -0 -0 -0 0 0 -0 -0 0 -0 -0 -0 0 -0 0 -0 -0 -0 -0 -0 -0
0 0 0 0 0 0 0 0 0 0 0 0 0 0 0 0 0 0 0 0 0 0 0 -0 -0 -0 -0 0 -0 0 0 -0 0 0 -0 -0 -0 -0 -0 0 -0 0 -0 -0 0 0 0 -0 -0 -0 -0 -0 -0 -0
0 0 0 0 0 0 0 0 0 0 0 0 0 0 0 0 0 0 0 0 0 0 0 -0 -0 0 0 -0 0 0 0 0 0 0 0 -0 -0 0 -0 -0 -0 -0 0 0 0 0 0 -0 -0 -0 -0 -0 -0 -0
0 0 0 0 0 0 0 -0 0 0 0 0 0 0 0 0 0 0 0 0 0 0 0 0 -0 0 -0 0 0 0 -0 0 0 0 0 0 0 0 0 0 -0 -0 -0 -0 -0 0 0 0 0 0 -0 -0 -0 -0
0 0 0 0 0 0 0 0 -0 0 0 0 0 0 0 0 0 0 0 0 0 0 0 -0 0 0 0 0 0 0 0 0 0 0 0 0 0 0 0 0 0 0 -0 -0 0 -0 0 0 0 0 -0 -0 -0 -0
0 0 0 -0 -0 -0 -0 0 0 0 0 -0 -0 -0 -0 -0 0 0 0 0 0 0 0 0 0 0 0 0 -0 -0 0 0 0 0 0 0 0 0 0 0 0 0 0 0 -0 -0 -0 0 0 -0 -0 -0 -0 -0
0 0 0 0 -0 0 0 0 0 0 -0 0 0 -0 -0 0 -0 -0 0 0 0 0 0 0 0 0 0 0 0 0 0 0 0 0 0 0 0 0 0 0 0 0 0 0 0 0 0 0 0 0 -0 -0 -0 -0
0 -0 0 0 0 0 -0 0 -0 -0 0 -0 -0 0 -0 -0 0 0 0 0 0 0 0 0 0 0 0 0 0 0 0 0 0 0 0 0 0 0 -0 0 0 0 0 0 0 0 0 0 0 0 0 0 0 -0
0 0 0 0 0 -0 -0 -0 0 0 0 -0 -0 -0 0 0 0 0 0 -0 0 0 0 0 0 0 0 0 0 -0 0 0 0 0 0 -0 -0 -0 0 0 0 0 0 0 0 0 0 0 0 0 0 0 0 0
0 0 0 -0 -0 -0 -0 -0 -0 -0 -0 0 -0 0 0 0 0 0 0 0 -0 0 0 0 0 0 0 0 -0 -0 -0 -0 -0 -0 -0 -0 0 0 0 0 0 0 0 0 0 0 0 0 0 0 0 0 0 0
0 0 0 0 -0 -0 0 -0 0 0 0 0 0 0 0 0 0 0 -0 -0 -0 0 0 0 0 0 0 -0 -0 -0 -0 0 -0 -0 -0 0 0 0 0 0 0 0 0 0 0 0 0 0 0 0 0 0 0 0
-0 -0 0 0 0 0 0 0 0 0 0 0 0 0 0 0 0 0 -0 -0 0 0 0 0 0 0 0 -0 -0 -0 -0 0 0 0 0 0 0 0 0 0 0 0 0 0 0 0 0 0 0 0 0 0 0 0
0 0 0 0 0 0 0 0 0 0 0 0 0 0 0 0 0 0 -0 -0 -0 0 0 0 -0 -0 -0 0 0 0 0 0 0 0 0 0 0 0 0 0 0 0 0 0 0 0 0 0 0 0 0 0 0 0
0 0 0 0 0 0 0 0 0 0 0 0 0 0 0 0 0 0 0 -0 0 0 -0 -0 -0 -0 0 0 0 0 0 0 0 0 0 0 0 0 0 0 0 0 0 0 0 0 0 0 0 0 0 0 0 0
0 0 0 0 0 0 0 -0 0 0 0 0 0 0 0 0 0 0 0 0 0 0 0 0 0 0 0 0 0 0 0 0 0 0 0 0 0 0 0 0 0 0 0 0 0 0 0 0 0 0 0 0 0 0
Wind_Speed_500mb
40 40 36 30 20 18 18 20 19 16 16 18 19 19 16 14 9 5 4 7 6 10 17 12 13 7 2 2 1 12 5 0 5 1 2 4 4 6 6 10 8 6 4 8 8 9 12 11 12 1 6 16 23 28
38 36 34 29 22 20 21 17 20 28 31 23 17 16 15 15 10 5 4 7 10 10 18 26 18 13 11 7 8 4 7 9 13 5 7 6 6 8 10 5 6 3 8 4 6 7 14 21 4 13 13 25 25 38
37 38 34 30 29 25 30 31 28 26 26 21 18 14 14 14 9 5 4 8 12 11 22 5 11 3 9 16 13 2 5 3 9 8 6 4 8 5 5 6 8 11 13 6 10 9 16 21 15 14 20 29 31 32
37 37 34 33 31 26 25 26 24 23 27 23 20 17 11 10 9 8 7 4 5 6 5 8 4 6 12 8 8 9 7 5 3 4 5 4 5 10 6 9 8 11 4 9 21 8 13 13 13 18 36 36 32 30
38 37 34 31 30 26 22 22 20 19 16 13 17 19 16 12 10 10 13 12 7 2 3 15 22 14 19 21 13 12 14 6 4 2 1 5 9 9 10 11 15 19 6 5 7 14 24 37 17 25 29 28 29 35
37 36 35 30 27 25 22 17 16 14 12 11 10 15 19 15 10 7 6 9 10 10 3 5 8 11 21 19 16 17 9 8 8 6 6 11 28 15 5 6 11 6 13 21 15 22 14 25 24 30 26 26 29 37
34 33 30 26 27 24 20 15 13 11 10 12 10 11 13 13 14 6 1 5 8 15 3 7 5 13 26 27 18 16 15 8 9 8 9 12 14 13 5 7 14 40 47 17 15 7 12 20 33 40 25 30 31 36
32 30 28 26 26 21 16 12 12 10 9 8 10 12 17 11 12 12 14 6 7 4 3 4 5 10 31 14 10 15 13 11 11 8 7 11 16 10 8 21 23 14 12 19 9 13 24 28 26 30 34 39 47 51
34 32 28 22 21 15 11 10 11 9 8 7 12 11 16 9 7 10 8 10 12 6 4 6 4 4 24 14 10 11 10 4 9 7 8 9 7 9 14 24 5 15 6 9 18 24 26 29 30 37 36 40 37 41
32 31 30 20 17 16 12 13 10 8 9 14 21 6 6 7 9 8 7 6 8 8 8 7 14 4 17 18 10 9 6 5 5 12 11 6 8 36 34 37 4 5 10 14 16 22 25 28 28 28 31 34 48 44
31 30 31 25 18 18 15 10 8 14 15 19 11 4 9 16 14 7 6 7 9 6 12 13 22 11 2 3 4 9 5 5 5 6 6 5 5 3 6 0 5 10 9 13 18 22 22 20 31 33 33 45 38 48
29 34 31 29 23 20 23 13 14 20 15 14 9 19 17 7 6 6 6 8 8 7 17 12 21 19 6 3 4 8 5 5 9 15 5 5 5 8 7 4 4 8 15 20 17 19 24 29 26 29 39 37 46 38
35 30 32 29 22 21 23 17 16 25 12 12 7 7 8 7 7 8 11 8 7 11 20 24 7 13 7 5 2 3 7 10 6 5 4 5 6 13 6 15 16 19 16 19 22 24 27 23 33 28 37 39 43 36
34 27 20 12 18 20 17 18 19 29 10 7 9 8 8 9 10 10 12 4 2 5 35 27 16 7 9 8 6 8 10 4 6 7 4 5 18 15 16 17 17 17 17 22 23 22 27 35 28 36 33 45 35 51
19 16 12 16 20 19 16 19 21 30 12 6 6 7 13 23 22 16 7 19 31 16 19 14 10 4 2 4 6 5 6 5 3 4 6 18 15 17 18 15 15 16 18 20 21 19 29 28 34 30 42 32 47 54
15 12 10 12 11 17 17 23 28 24 6 5 8 8 18 17 17 7 2 25 29 27 21 13 5 4 5 4 5 8 4 4 3 6 21 23 18 14 13 14 12 16 17 19 18 19 29 33 33 36 38 37 57 58
4 7 11 11 17 18 24 33 15 10 6 6 11 23 34 26 6 6 9 5 17 16 5 4 8 7 5 5 6 5 1 5 24 27 28 24 19 15 14 13 14 15 16 18 17 21 30 32 33 39 41 44 50 59
5 6 2 5 11 20 23 15 4 6 9 17 14 22 22 22 15 17 1 11 14 4 11 6 4 5 5 6 2 5 13 16 25 32 25 22 18 16 13 14 14 11 12 21 26 25 31 30 36 38 36 42 50 56
7 5 7 11 15 10 4 5 8 6 17 14 26 32 27 25 16 6 18 23 24 22 15 9 4 5 5 4 7 18 10 10 24 31 26 19 15 11 10 11 13 11 8 17 25 26 27 31 37 36 37 46 54 50
13 9 13 13 22 7 7 5 8 8 11 10 21 25 22 21 19 8 8 29 27 13 7 6 6 11 8 12 15 12 24 16 29 30 26 21 13 13 15 10 14 19 18 16 27 27 26 34 34 37 37 41 57 49
5 5 12 14 17 12 3 6 8 9 14 13 19 16 10 16 17 12 11 30 11 10 7 16 17 17 15 12 9 13 19 19 31 29 26 21 13 12 9 7 20 22 21 19 22 25 28 36 33 32 36 38 48 50
3 9 18 22 9 9 8 12 9 8 7 11 13 7 9 10 7 5 14 18 10 14 17 16 20 12 7 15 18 12 18 19 23 30 23 20 29 23 20 20 25 23 18 23 22 22 24 26 26 30 34 33 38 52
17 16 8 11 8 11 7 11 7 5 5 6 9 5 5 3 3 2 1 4 8 22 25 19 17 13 10 14 11 8 17 10 29 26 30 27 26 21 18 16 18 22 16 21 20 21 22 24 24 32 30 34 33 44
18 8 6 9 12 7 7 8 5 4 5 4 4 7 5 4 3 2 4 5 9 8 8 17 14 9 7 14 23 14 17 28 25 23 19 27 26 25 27 24 18 17 18 12 21 19 21 21 24 23 33 30 35 36
7 8 7 8 12 11 11 9 8 7 6 9 6 6 4 5 3 3 2 9 14 2 9 22 22 9 8 13 19 27 25 27 28 29 23 15 22 22 21 20 17 16 14 13 14 22 20 21 21 25 26 33 32 31
8 11 12 13 7 8 10 6 13 11 5 6 6 7 7 4 5 3 2 19 14 7 21 29 12 8 16 19 20 26 22 28 31 35 30 25 28 26 37 32 22 15 11 13 11 12 17 20 20 18 23 26 27 28
5 9 12 12 9 9 8 2 8 4 5 6 4 6 5 5 4 2 3 18 23 12 24 13 16 28 22 29 25 22 25 26 33 32 17 11 13 17 20 15 12 12 16 8 8 8 11 13 15 17 18 22 26 25
10 7 13 10 19 15 5 1 5 3 4 5 8 3 3 5 3 4 9 16 19 12 11 13 16 10 35 25 22 27 31 28 23 20 21 22 23 24 24 25 24 21 21 26 28 27 14 12 11 9 10 22 13 28
9 9 9 10 10 6 3 5 5 6 10 8 2 4 5 4 6 12 13 15 16 14 19 20 37 38 35 27 25 26 23 19 19 21 25 29 25 19 14 15 16 10 16 20 18 20 20 19 14 19 21 20 16 21
9 10 6 3 4 4 7 8 3 5 3 6 10 11 11 12 12 14 16 18 20 16 16 16 16 22 25 24 27 23 13 8 12 17 27 28 20 12 9 6 6 10 9 7 9 6 4 19 14 22 16 18 17 13
11 8 3 6 5 4 8 12 12 11 10 15 18 17 16 14 21 26 25 23 16 19 18 20 25 30 32 29 27 24 28 30 28 21 15 11 8 12 9 6 6 10 9 4 9 11 9 6 3 2 10 14 14 12
10 9 9 5 5 15 8 4 6 6 5 6 7 15 13 10 9 12 32 31 27 32 30 33 34 31 31 32 31 31 21 24 24 27 27 22 23 18 10 5 9 11 5 5 16 19 18 13 10 10 9 9 12 17
6 13 9 8 8 8 10 10 7 7 7 6 5 10 10 7 6 7 24 33 24 20 23 22 22 21 20 20 20 17 11 12 15 13 10 7 7 8 6 3 9 9 8 1 13 18 18 15 14 15 15 16 18 21
Wind_Direction_500mb
328 328 325 317 312 324 304 291 299 306 306 308 308 300 302 319 298 250 284 306 333 309 327 41 50 16 61 122 83 14 345 283 292 310 309 302 296 281 351 350 164 187 225 201 224 218 248 12 351 348 250 315 324 341
325 325 325 320 296 284 289 294 300 298 298 295 290 282 281 296 301 266 272 291 326 285 251 298 298 234 256 288 200 352 354 321 30 359 26 348 332 339 332 281 111 230 197 274 213 226 225 282 238 312 289 297 336 319
328 322 318 313 307 288 277 285 291 293 293 286 280 278 269 270 283 285 296 332 344 324 317 234 230 293 215 216 199 233 85 127 73 48 339 276 261 327 288 277 351 344 53 268 345 305 12 30 81 14 341 323 319 326
326 321 317 315 312 307 293 286 291 294 278 277 259 257 254 243 262 262 270 311 354 334 305 71 87 163 176 205 210 240 233 195 55 51 30 294 274 275 282 283 265 221 267 280 290 314 342 56 358 347 315 311 314 337
323 322 319 315 312 312 303 286 290 295 297 290 268 234 228 231 253 272 277 274 251 241 296 295 298 256 224 194 182 195 200 210 120 85 11 252 255 276 278 269 261 250 218 199 240 341 292 286 312 322 298 314 344 340
320 321 318 316 315 311 305 292 297 292 274 268 256 240 204 222 238 269 323 17 224 183 250 293 325 181 155 189 170 180 224 193 163 165 223 243 248 268 277 269 257 200 264 245 235 263 300 312 320 308 329 351 346 341
318 319 316 316 315 309 302 291 288 278 268 253 232 213 201 195 208 203 292 101 81 163 281 296 275 160 157 149 160 174 196 207 191 194 228 244 272 196 249 246 273 295 307 285 272 303 321 332 310 311 345 347 344 331
310 310 310 310 314 306 302 292 277 265 266 254 218 190 186 206 197 234 230 239 192 209 232 286 283 170 176 176 149 185 183 190 216 229 248 254 270 210 254 254 287 321 359 318 343 330 302 310 332 348 350 342 339 338
304 303 306 304 310 300 299 303 283 259 245 196 169 145 143 187 174 205 221 199 217 187 239 209 247 198 176 205 149 175 186 199 212 223 240 205 227 221 233 250 292 295 261 319 341 334 347 347 346 347 347 349 348 339
309 296 300 284 294 288 297 296 276 226 194 159 148 158 168 184 195 161 147 178 207 220 225 247 259 271 195 180 150 124 186 238 243 221 226 191 248 256 261 278 287 53 18 337 354 344 351 347 347 5 359 341 333 335
298 299 289 275 271 279 274 289 238 179 165 158 172 167 140 154 153 166 167 196 174 229 216 234 231 230 301 155 109 183 159 257 265 207 203 222 259 163 208 54 79 348 325 2 6 350 341 11 8 359 350 337 344 340
298 297 289 282 260 267 257 247 210 179 179 194 162 141 154 181 215 245 188 181 206 237 190 208 210 196 140 131 163 173 242 232 251 152 217 243 30 121 178 223 19 40 34 10 349 8 12 7 6 353 344 355 347 349
302 289 282 283 253 251 260 225 212 201 175 158 186 151 172 177 206 222 197 198 209 211 175 160 132 143 127 161 169 211 233 236 243 221 219 35 151 235 58 36 53 35 29 19 23 14 6 14 344 4 354 358 353 351
306 290 271 251 236 242 258 234 210 198 184 191 171 184 223 183 233 205 239 181 148 329 144 165 136 133 155 170 216 221 220 284 256 212 72 188 225 96 73 50 49 39 28 28 21 17 18 360 25 11 17 3 0 358
304 294 238 269 260 241 222 185 189 173 180 189 217 231 218 241 255 268 119 129 148 134 112 96 74 351 120 250 246 288 250 248 349 127 183 234 92 83 69 62 47 41 34 29 16 23 21 4 3 30 14 15 5 12
320 320 299 253 209 183 176 152 171 188 211 232 234 268 272 282 299 340 286 149 143 126 110 103 122 157 203 247 240 230 282 325 229 131 165 126 109 98 83 72 61 48 41 28 22 33 27 18 33 27 24 17 16 15
302 353 357 119 137 152 160 176 180 191 218 232 248 249 256 275 257 45 340 350 160 158 106 161 163 183 165 228 234 204 199 329 146 116 117 122 118 104 94 77 72 55 43 28 19 43 39 34 32 30 29 17 20 14
276 304 123 144 119 166 173 197 161 211 241 239 250 264 256 272 264 223 341 240 217 146 146 201 193 199 213 254 357 319 17 346 167 136 133 127 114 90 83 81 64 60 59 37 40 72 45 41 36 31 30 17 23 12
221 222 211 202 176 170 145 197 204 262 242 252 254 268 273 286 287 310 139 182 172 184 157 162 202 214 229 242 23 340 144 242 148 134 130 122 110 98 88 73 57 51 75 66 64 59 49 42 38 33 32 21 29 16
259 217 148 193 197 197 167 200 208 255 274 263 253 262 281 279 282 296 166 151 146 158 184 202 219 214 269 302 327 295 264 255 148 144 143 144 145 105 115 115 88 64 58 102 69 48 53 44 39 37 32 28 30 24
266 218 195 182 205 217 231 217 232 243 288 297 323 327 280 268 272 250 169 171 167 178 226 233 242 271 279 299 264 315 317 245 188 178 161 163 178 168 86 38 127 82 67 58 74 58 39 44 37 37 36 35 23 29
185 175 169 191 184 207 243 227 247 293 260 271 300 281 295 288 280 205 178 185 200 215 221 241 256 297 254 243 298 22 142 118 121 137 144 132 118 99 84 71 75 79 65 47 56 55 46 42 35 31 42 34 20 21
191 202 173 179 198 205 250 200 217 248 262 306 307 246 224 243 313 0 158 246 254 261 263 242 243 240 234 219 268 172 121 127 124 113 109 99 101 102 96 85 72 62 68 45 50 50 48 38 32 25 37 41 23 16
192 187 200 196 205 208 196 193 210 265 279 254 240 266 213 133 106 278 261 239 273 286 251 214 175 154 163 157 164 157 115 121 121 110 123 130 113 100 98 89 78 62 52 48 44 42 36 36 30 24 22 41 35 20
174 210 197 219 214 207 194 179 202 192 240 214 235 220 135 134 160 207 286 326 12 207 170 146 139 166 178 158 142 115 111 132 125 103 98 99 128 143 133 125 103 76 55 45 41 35 30 25 29 26 25 32 35 31
223 201 195 205 207 222 202 212 191 208 230 219 247 125 147 159 199 125 46 339 25 108 145 152 164 142 125 127 118 111 100 124 122 97 92 94 96 112 138 118 102 67 77 56 39 40 33 25 24 23 23 19 22 29
239 231 218 224 223 253 266 157 179 183 241 228 163 152 164 180 125 81 110 44 36 91 120 87 120 141 126 117 113 122 128 133 131 114 110 113 110 108 121 109 73 49 34 57 25 25 47 23 26 22 20 21 19 17
257 257 205 216 225 242 265 250 214 261 324 73 123 74 94 26 95 161 141 73 67 63 91 64 133 155 139 131 109 118 114 117 119 112 95 75 68 73 69 59 55 48 35 28 28 29 33 34 23 16 24 23 24 26
247 261 274 251 209 221 22 324 53 71 3 349 14 81 95 93 115 121 113 84 89 114 104 97 107 122 122 121 112 113 122 136 130 129 126 121 107 88 83 77 58 41 37 13 11 26 32 16 25 40 36 14 8 35
230 232 269 247 115 77 26 4 33 340 14 108 104 105 100 111 99 96 87 100 120 132 133 134 122 124 130 134 119 110 91 108 143 167 160 144 128 139 126 116 118 47 45 47 25 7 28 43 58 49 40 18 13 24
142 143 96 44 83 117 117 90 88 93 90 79 99 121 124 116 88 98 87 90 88 142 139 134 143 145 144 139 139 135 115 103 96 97 110 124 96 69 75 53 79 78 43 332 299 314 351 316 335 35 52 41 24 4
153 159 173 129 131 152 123 83 81 81 74 80 95 124 104 88 71 80 87 87 94 95 102 117 117 118 139 150 159 157 153 147 148 147 154 153 131 125 124 79 70 63 35 293 295 319 343 336 337 339 341 339 330 329
180 159 133 116 137 183 195 188 142 118 109 119 114 106 87 86 104 131 102 101 99 117 124 136 142 140 143 138 140 140 163 171 171 176 183 194 206 239 295 147 130 153 143 195 306 333 7 16 14 13 9 1 354 349
Wind_Speed_850mb
40 40 36 30 20 18 18 20 19 16 16 18 19 19 16 14 9 5 4 7 6 10 17 12 13 7 2 2 1 12 5 0 5 1 2 4 4 6 6 10 8 6 4 8 8 9 12 11 12 1 6 16 23 28
38 36 34 29 22 20 21 17 20 28 31 23 17 16 15 15 10 5 4 7 10 10 18 26 18 13 11 7 8 4 7 9 13 5 7 6 6 8 10 5 6 3 8 4 6 7 14 21 4 13 13 25 25 38
37 38 34 30 29 25 30 31 28 26 26 21 18 14 14 14 9 5 4 8 12 11 22 5 11 3 9 16 13 2 5 3 9 8 6 4 8 5 5 6 8 11 13 6 10 9 16 21 15 14 20 29 31 32
37 37 34 33 31 26 25 26 24 23 27 23 20 17 11 10 9 8 7 4 5 6 5 8 4 6 12 8 8 9 7 5 3 4 5 4 5 10 6 9 8 11 4 9 21 8 13 13 13 18 36 36 32 30
38 37 34 31 30 26 22 22 20 19 16 13 17 19 16 12 10 10 13 12 7 2 3 15 22 14 19 21 13 12 14 6 4 2 1 5 9 9 10 11 15 19 6 5 7 14 24 37 17 25 29 28 29 35
37 36 35 30 27 25 22 17 16 14 12 11 10 15 19 15 10 7 6 9 10 10 3 5 8 11 21 19 16 17 9 8 8 6 6 11 28 15 5 6 11 6 13 21 15 22 14 25 24 30 26 26 29 37
34 33 30 26 27 24 20 15 13 11 10 12 10 11 13 13 14 6 1 5 8 15 3 7 5 13 26 27 18 16 15 8 9 8 9 12 14 13 5 7 14 40 47 17 15 7 12 20 33 40 25 30 31 36
32 30 28 26 26 21 16 12 12 10 9 8 10 12 17 11 12 12 14 6 7 4 3 4 5 10 31 14 10 15 13 11 11 8 7 11 16 10 8 21 23 14 12 19 9 13 24 28 26 30 34 39 47 51
34 32 28 22 21 15 11 10 11 9 8 7 12 11 16 9 7 10 8 10 12 6 4 6 4 4 24 14 10 11 10 4 9 7 8 9 7 9 14 24 5 15 6 9 18 24 26 29 30 37 36 40 37 41
32 31 30 20 17 16 12 13 10 8 9 14 21 6 6 7 9 8 7 6 8 8 8 7 14 4 17 18 10 9 6 5 5 12 11 6 8 36 34 37 4 5 10 14 16 22 25 28 28 28 31 34 48 44
31 30 31 25 18 18 15 10 8 14 15 19 11 4 9 16 14 7 6 7 9 6 12 13 22 11 2 3 4 9 5 5 5 6 6 5 5 3 6 0 5 10 9 13 18 22 22 20 31 33 33 45 38 48
29 34 31 29 23 20 23 13 14 20 15 14 9 19 17 7 6 6 6 8 8 7 17 12 21 19 6 3 4 8 5 5 9 15 5 5 5 8 7 4 4 8 15 20 17 19 24 29 26 29 39 37 46 38
35 30 32 29 22 21 23 17 16 25 12 12 7 7 8 7 7 8 11 8 7 11 20 24 7 13 7 5 2 3 7 10 6 5 4 5 6 13 6 15 16 19 16 19 22 24 27 23 33 28 37 39 43 36
34 27 20 12 18 20 17 18 19 29 10 7 9 8 8 9 10 10 12 4 2 5 35 27 16 7 9 8 6 8 10 4 6 7 4 5 18 15 16 17 17 17 17 22 23 22 27 35 28 36 33 45 35 51
19 16 12 16 20 19 16 19 21 30 12 6 6 7 13 23 22 16 7 19 31 16 19 14 10 4 2 4 6 5 6 5 3 4 6 18 15 17 18 15 15 16 18 20 21 19 29 28 34 30 42 32 47 54
15 12 10 12 11 17 17 23 28 24 6 5 8 8 18 17 17 7 2 25 29 27 21 13 5 4 5 4 5 8 4 4 3 6 21 23 18 14 13 14 12 16 17 19 18 19 29 33 33 36 38 37 57 58
4 7 11 11 17 18 24 33 15 10 6 6 11 23 34 26 6 6 9 5 17 16 5 4 8 7 5 5 6 5 1 5 24 27 28 24 19 15 14 13 14 15 16 18 17 21 30 32 33 39 41 44 50 59
5 6 2 5 11 20 23 15 4 6 9 17 14 22 22 22 15 17 1 11 14 4 11 6 4 5 5 6 2 5 13 16 25 32 25 22 18 16 13 14 14 11 12 21 26 25 31 30 36 38 36 42 50 56
7 5 7 11 15 10 4 5 8 6 17 14 26 32 27 25 16 6 18 23 24 22 15 9 4 5 5 4 7 18 10 10 24 31 26 19 15 11 10 11 13 11 8 17 25 26 27 31 37 36 37 46 54 50
13 9 13 13 22 7 7 5 8 8 11 10 21 25 22 21 19 8 8 29 27 13 7 6 6 11 8 12 15 12 24 16 29 30 26 21 13 13 15 10 14 19 18 16 27 27 26 34 34 37 37 41 57 49
5 5 12 14 17 12 3 6 8 9 14 13 19 16 10 16 17 12 11 30 11 10 7 16 17 17 15 12 9 13 19 19 31 29 26 21 13 12 9 7 20 22 21 19 22 25 28 36 33 32 36 38 48 50
3 9 18 22 9 9 8 12 9 8 7 11 13 7 9 10 7 5 14 18 10 14 17 16 20 12 7 15 18 12 18 19 23 30 23 20 29 23 20 20 25 23 18 23 22 22 24 26 26 30 34 33 38 52
17 16 8 11 8 11 7 11 7 5 5 6 9 5 5 3 3 2 1 4 8 22 25 19 17 13 10 14 11 8 17 10 29 26 30 27 26 21 18 16 18 22 16 21 20 21 22 24 24 32 30 34 33 44
18 8 6 9 12 7 7 8 5 4 5 4 4 7 5 4 3 2 4 5 9 8 8 17 14 9 7 14 23 14 17 28 25 23 19 27 26 25 27 24 18 17 18 12 21 19 21 21 24 23 33 30 35 36
7 8 7 8 12 11 11 9 8 7 6 9 6 6 4 5 3 3 2 9 14 2 9 22 22 9 8 13 19 27 25 27 28 29 23 15 22 22 21 20 17 16 14 13 14 22 20 21 21 25 26 33 32 31
8 11 12 13 7 8 10 6 13 11 5 6 6 7 7 4 5 3 2 19 14 7 21 29 12 8 16 19 20 26 22 28 31 35 30 25 28 26 37 32 22 15 11 13 11 12 17 20 20 18 23 26 27 28
5 9 12 12 9 9 8 2 8 4 5 6 4 6 5 5 4 2 3 18 23 12 24 13 16 28 22 29 25 22 25 26 33 32 17 11 13 17 20 15 12 12 16 8 8 8 11 13 15 17 18 22 26 25
10 7 13 10 19 15 5 1 5 3 4 5 8 3 3 5 3 4 9 16 19 12 11 13 16 10 35 25 22 27 31 28 23 20 21 22 23 24 24 25 24 21 21 26 28 27 14 12 11 9 10 22 13 28
9 9 9 10 10 6 3 5 5 6 10 8 2 4 5 4 6 12 13 15 16 14 19 20 37 38 35 27 25 26 23 19 19 21 25 29 25 19 14 15 16 10 16 20 18 20 20 19 14 19 21 20 16 21
9 10 6 3 4 4 7 8 3 5 3 6 10 11 11 12 12 14 16 18 20 16 16 16 16 22 25 24 27 23 13 8 12 17 27 28 20 12 9 6 6 10 9 7 9 6 4 19 14 22 16 18 17 13
11 8 3 6 5 4 8 12 12 11 10 15 18 17 16 14 21 26 25 23 16 19 18 20 25 30 32 29 27 24 28 30 28 21 15 11 8 12 9 6 6 10 9 4 9 11 9 6 3 2 10 14 14 12
10 9 9 5 5 15 8 4 6 6 5 6 7 15 13 10 9 12 32 31 27 32 30 33 34 31 31 32 31 31 21 24 24 27 27 22 23 18 10 5 9 11 5 5 16 19 18 13 10 10 9 9 12 17
6 13 9 8 8 8 10 10 7 7 7 6 5 10 10 7 6 7 24 33 24 20 23 22 22 21 20 20 20 17 11 12 15 13 10 7 7 8 6 3 9 9 8 1 13 18 18 15 14 15 15 16 18 21
Wind_Direction_850mb
328 328 325 317 312 324 304 291 299 306 306 308 308 300 302 319 298 250 284 306 333 309 327 41 50 16 61 122 83 14 345 283 292 310 309 302 296 281 351 350 164 187 225 201 224 218 248 12 351 348 250 315 324 341
325 325 325 320 296 284 289 294 300 298 298 295 290 282 281 296 301 266 272 291 326 285 251 298 298 234 256 288 200 352 354 321 30 359 26 348 332 339 332 281 111 230 197 274 213 226 225 282 238 312 289 297 336 319
328 322 318 313 307 288 277 285 291 293 293 286 280 278 269 270 283 285 296 332 344 324 317 234 230 293 215 216 199 233 85 127 73 48 339 276 261 327 288 277 351 344 53 268 345 305 12 30 81 14 341 323 319 326
326 321 317 315 312 307 293 286 291 294 278 277 259 257 254 243 262 262 270 311 354 334 305 71 87 163 176 205 210 240 233 195 55 51 30 294 274 275 282 283 265 221 267 280 290 314 342 56 358 347 315 311 314 337
323 322 319 315 312 312 303 286 290 295 297 290 268 234 228 231 253 272 277 274 251 241 296 295 298 256 224 194 182 195 200 210 120 85 11 252 255 276 278 269 261 250 218 199 240 341 292 286 312 322 298 314 344 340
320 321 318 316 315 311 305 292 297 292 274 268 256 240 204 222 238 269 323 17 224 183 250 293 325 181 155 189 170 180 224 193 163 165 223 243 248 268 277 269 257 200 264 245 235 263 300 312 320 308 329 351 346 341
318 319 316 316 315 309 302 291 288 278 268 253 232 213 201 195 208 203 292 101 81 163 281 296 275 160 157 149 160 174 196 207 191 194 228 244 272 196 249 246 273 295 307 285 272 303 321 332 310 311 345 347 344 331
310 310 310 310 314 306 302 292 277 265 266 254 218 190 186 206 197 234 230 239 192 209 232 286 283 170 176 176 149 185 183 190 216 229 248 254 270 210 254 254 287 321 359 318 343 330 302 310 332 348 350 342 339 338
304 303 306 304 310 300 299 303 283 259 245 196 169 145 143 187 174 205 221 199 217 187 239 209 247 198 176 205 149 175 186 199 212 223 240 205 227 221 233 250 292 295 261 319 341 334 347 347 346 347 347 349 348 339
309 296 300 284 294 288 297 296 276 226 194 159 148 158 168 184 195 161 147 178 207 220 225 247 259 271 195 180 150 124 186 238 243 221 226 191 248 256 261 278 287 53 18 337 354 344 351 347 347 5 359 341 333 335
298 299 289 275 271 279 274 289 238 179 165 158 172 167 140 154 153 166 167 196 174 229 216 234 231 230 301 155 109 183 159 257 265 207 203 222 259 163 208 54 79 348 325 2 6 350 341 11 8 359 350 337 344 340
298 297 289 282 260 267 257 247 210 179 179 194 162 141 154 181 215 245 188 181 206 237 190 208 210 196 140 131 163 173 242 232 251 152 217 243 30 121 178 223 19 40 34 10 349 8 12 7 6 353 344 355 347 349
302 289 282 283 253 251 260 225 212 201 175 158 186 151 172 177 206 222 197 198 209 211 175 160 132 143 127 161 169 211 233 236 243 221 219 35 151 235 58 36 53 35 29 19 23 14 6 14 344 4 354 358 353 351
306 290 271 251 236 242 258 234 210 198 184 191 171 184 223 183 233 205 239 181 148 329 144 165 136 133 155 170 216 221 220 284 256 212 72 188 225 96 73 50 49 39 28 28 21 17 18 360 25 11 17 3 0 358
304 294 238 269 260 241 222 185 189 173 180 189 217 231 218 241 255 268 119 129 148 134 112 96 74 351 120 250 246 288 250 248 349 127 183 234 92 83 69 62 47 41 34 29 16 23 21 4 3 30 14 15 5 12
320 320 299 253 209 183 176 152 171 188 211 232 234 268 272 282 299 340 286 149 143 126 110 103 122 157 203 247 240 230 282 325 229 131 165 126 109 98 83 72 61 48 41 28 22 33 27 18 33 27 24 17 16 15
302 353 357 119 137 152 160 176 180 191 218 232 248 249 256 275 257 45 340 350 160 158 106 161 163 183 165 228 234 204 199 329 146 116 117 122 118 104 94 77 72 55 43 28 19 43 39 34 32 30 29 17 20 14
276 304 123 144 119 166 173 197 161 211 241 239 250 264 256 272 264 223 341 240 217 146 146 201 193 199 213 254 357 319 17 346 167 136 133 127 114 90 83 81 64 60 59 37 40 72 45 41 36 31 30 17 23 12
221 222 211 202 176 170 145 197 204 262 242 252 254 268 273 286 287 310 139 182 172 184 157 162 202 214 229 242 23 340 144 242 148 134 130 122 110 98 88 73 57 51 75 66 64 59 49 42 38 33 32 21 29 16
259 217 148 193 197 197 167 200 208 255 274 263 253 262 281 279 282 296 166 151 146 158 184 202 219 214 269 302 327 295 264 255 148 144 143 144 145 105 115 115 88 64 58 102 69 48 53 44 39 37 32 28 30 24
266 218 195 182 205 217 231 217 232 243 288 297 323 327 280 268 272 250 169 171 167 178 226 233 242 271 279 299 264 315 317 245 188 178 161 163 178 168 86 38 127 82 67 58 74 58 39 44 37 37 36 35 23 29
185 175 169 191 184 207 243 227 247 293 260 271 300 281 295 288 280 205 178 185 200 215 221 241 256 297 254 243 298 22 142 118 121 137 144 132 118 99 84 71 75 79 65 47 56 55 46 42 35 31 42 34 20 21
191 202 173 179 198 205 250 200 217 248 262 306 307 246 224 243 313 0 158 246 254 261 263 242 243 240 234 219 268 172 121 127 124 113 109 99 101 102 96 85 72 62 68 45 50 50 48 38 32 25 37 41 23 16
192 187 200 196 205 208 196 193 210 265 279 254 240 266 213 133 106 278 261 239 273 286 251 214 175 154 163 157 164 157 115 121 121 110 123 130 113 100 98 89 78 62 52 48 44 42 36 36 30 24 22 41 35 20
174 210 197 219 214 207 194 179 202 192 240 214 235 220 135 134 160 207 286 326 12 207 170 146 139 166 178 158 142 115 111 132 125 103 98 99 128 143 133 125 103 76 55 45 41 35 30 25 29 26 25 32 35 31
223 201 195 205 207 222 202 212 191 208 230 219 247 125 147 159 199 125 46 339 25 108 145 152 164 142 125 127 118 111 100 124 122 97 92 94 96 112 138 118 102 67 77 56 39 40 33 25 24 23 23 19 22 29
239 231 218 224 223 253 266 157 179 183 241 228 163 152 164 180 125 81 110 44 36 91 120 87 120 141 126 117 113 122 128 133 131 114 110 113 110 108 121 109 73 49 34 57 25 25 47 23 26 22 20 21 19 17
257 257 205 216 225 242 265 250 214 261 324 73 123 74 94 26 95 161 141 73 67 63 91 64 133 155 139 131 109 118 114 117 119 112 95 75 68 73 69 59 55 48 35 28 28 29 33 34 23 16 24 23 24 26
247 261 274 251 209 221 22 324 53 71 3 349 14 81 95 93 115 121 113 84 89 114 104 97 107 122 122 121 112 113 122 136 130 129 126 121 107 88 83 77 58 41 37 13 11 26 32 16 25 40 36 14 8 35
230 232 269 247 115 77 26 4 33 340 14 108 104 105 100 111 99 96 87 100 120 132 133 134 122 124 130 134 119 110 91 108 143 167 160 144 128 139 126 116 118 47 45 47 25 7 28 43 58 49 40 18 13 24
142 143 96 44 83 117 117 90 88 93 90 79 99 121 124 116 88 98 87 90 88 142 139 134 143 145 144 139 139 135 115 103 96 97 110 124 96 69 75 53 79 78 43 332 299 314 351 316 335 35 52 41 24 4
153 159 173 129 131 152 123 83 81 81 74 80 95 124 104 88 71 80 87 87 94 95 102 117 117 118 139 150 159 157 153 147 148 147 154 153 131 125 124 79 70 63 35 293 295 319 343 336 337 339 341 339 330 329
180 159 133 116 137 183 195 188 142 118 109 119 114 106 87 86 104 131 102 101 99 117 124 136 142 140 143 138 140 140 163 171 171 176 183 194 206 239 295 147 130 153 143 195 306 333 7 16 14 13 9 1 354 349